User: anonymous   Login
Location: Helsinki
(60.1699°N, 24.9384°E)
Time: 14:29:02
(UTC+02:00)
Language:

A-11 Canister half - Orbit

View from above orbital plane
View from above orbital plane
View from above satellite
View from above satellite

Ground track
Ground track

The orbit data is extracted from the following two-line orbital elements,

1    53U 60009E   20304.39301907 -.00000077 +00000-0 +88125-4 0  9997
2    53 047.2748 202.8594 0098174 118.8819 242.1861 12.17246639685001
Epoch (UTC): 30 October 2020 09:25:56
Eccentricity: 0.0098174
inclination: 47.2748°
perigee height: 1526 km
apogee height: 1683 km
right ascension of ascending node: 202.8594°
argument of perigee: 118.8819°
revolutions per day: 12.17246639
mean anomaly at epoch: 242.1861°
orbit number at epoch: 68500

The dashed part of the orbit path shows where the satellite is in the earth's shadow,  

DLR